Regional Weather Roundup
Issued by NWS Grand Forks, ND

Home | Current Version | Previous Version | Text Only | Print | Product List | Glossary On
Versions: 1 2 3 4 5 6 7 8 9 10 11 12 13 14 15 16 17 18 19 20 21 22 23 24 25 26 27 28 29 30 31 32 33 34 35 36 37 38 39 40 41 42 43 44 45 46 47 48 49 50
000
ASUS43 KFGF 191031
RWRFGF
PRAIRIE TO PINES  WEATHER ROUNDUP
NATIONAL WEATHER SERVICE EASTERN NORTH DAKOTA/GRAND FORKS ND
500 AM CDT FRI SEP 19 2014

 **SATELLITE DATA USED TO AUGMENT SKY COVER AT AUTOMATED STATIONS**
 *****  WEATHER ACROSS EASTERN NORTH DAKOTA  *****

CITY           SKY/WX    TMP DP  RH WIND       PRES   REMARKS
GRAND FORKS    CLOUDY    64  57  78 S18G26    29.60S
GRAND FRKS AFB CLOUDY    65  60  81 SW22G31   29.58S
GRAND FRKS NWS   N/A     63 N/A N/A S16         N/A
DEVILS LAKE    CLOUDY    66  57  72 S20G25    29.53F
FARGO          CLOUDY    64  56  75 S22G30    29.71R
WAHPETON ARPT  CLOUDY    61  52  72 S16       29.76R
$$

 ***** WEATHER ACROSS CENTRAL AND WESTERN NORTH DAKOTA  *****

CITY           SKY/WX    TMP DP  RH WIND       PRES   REMARKS
BISMARCK       CLOUDY    64  62  93 SE12      29.60F
MINOT          CLOUDY    65  55  70 SW10      29.51F
JAMESTOWN      CLOUDY    64  59  83 S15       29.62F
MINOT AFB      CLOUDY    64  55  72 W7        29.51F
GARRISON         N/A     62  58  86 S7        29.56S
WILLISTON      CLOUDY    64  52  64 W12       29.56S
DICKINSON      CLOUDY    67  53  61 W15       29.63R
HETTINGER      CLOUDY    67  55  65 W18       29.72R
$$

 *****  OTHER AIRPORT OBSERVATIONS IN OUR AREA  *****

CITY           SKY/WX    TMP DP  RH WIND       PRES   REMARKS
WALHALLA         N/A     68  63  83 S7        29.51R
GRAFTON AIRPOR FAIR      64  57  77 S17G25    29.55S
VALLEY CITY AR FAIR      64  64 100 S15G22    29.65F
CANDO          FAIR      64  59  82 SW12      29.53S
CAVALIER APRT  PTSUNNY   66  59  77 S13       29.52S
GWINNER        MOSUNNY   66  61  82 S22G29    29.72F
ROLLA          FAIR      64  64 100 SW6       29.53R
 ***** THE ABOVE OBSERVATIONS ARE NON NWS ARE NOT QUALITY
       CONTROLLED AND MAY MIS-REPORT RAIN FOR SNOW...
$$

  *****  WEATHER ACROSS NORTHERN MINNESOTA  *****

CITY           SKY/WX    TMP DP  RH WIND       PRES   REMARKS
FLAG ISLAND    LGT RAIN  59  55  88 S18       29.56F
WARROAD        CLOUDY    64  57  77 S8G17     29.60F
ROSEAU         LGT RAIN  64  57  77 S17       29.60S
HALLOCK        LGT RAIN  63  59  88 S15G21    29.55S
THF RVR FALLS  CLOUDY    64  55  72 S18G26    29.63R
BAUDETTE       CLOUDY    61  53  75 S14G21    29.64F
WASKISH        CLOUDY    63  55  77 S9        29.68F
CROOKSTON      CLOUDY    64  55  72 S23G30    29.65R
STEPHEN NDAWN    N/A     64  57  77 S15         N/A
GREENBUSH NDAW   N/A     64  57  77 S16         N/A
$$
  *****  WEATHER ACROSS CENTRAL AND WEST MINNESOTA  *****

CITY           SKY/WX    TMP DP  RH WIND       PRES   REMARKS
FOSSTON        CLOUDY    63  55  77 S18G26    29.70R
BEMIDJI        CLOUDY    60  53  76 S12G18    29.74S
PARK RAPIDS    CLOUDY    60  51  72 S16G24    29.79F
ELBOW LAKE     FAIR      59  53  80 S17G25    29.79R
WADENA         CLOUDY    61  52  72 S13G18    29.80F
DETROIT LAKES  CLOUDY    63  54  72 S15G22    29.76S
MOORHEAD       CLOUDY    64  59  82 S13G20    29.73R
FERGUS FALLS   CLOUDY    61  52  72 S15G24    29.79R
MORRIS MN      CLOUDY    61  54  77 S16G22    29.79S
STAPLES        CLOUDY    59  52  77 S14       29.82F
$$
  *****  WEATHER ELSEWHERE ACROSS MINNESOTA  *****

CITY           SKY/WX    TMP DP  RH WIND       PRES   REMARKS
DULUTH         CLOUDY    53  50  89 S10       29.90F FOG
INTRNTL FALLS  CLOUDY    58  52  80 VRB7      29.70F
ELY            CLOUDY    54  50  87 S13G20    29.84F
CLOQUET        CLOUDY    54  52  94 SE3       29.90F
WHEATON        CLOUDY    59  54  82 S8G17     29.81R
BRAINERD       CLOUDY    57  51  80 S9        29.86F
HIBBING        CLOUDY    57  52  83 S7        29.86F
ALEXANDRIA     CLOUDY    60  53  77 S16       29.84F
SAINT CLOUD    CLOUDY    62  53  72 S14       29.90S
MINNEAPOLIS    MOCLDY    57  52  83 S9        29.95S
$$

  *****  WEATHER ACROSS SOUTH DAKOTA  *****

CITY           SKY/WX    TMP DP  RH WIND       PRES   REMARKS
SIOUX FALLS    CLOUDY    63  58  83 S17G24    29.84F
BROOKINGS      NOT AVBL
WATERTOWN      CLOUDY    61  56  83 SW21G35   29.85R
HURON          CLOUDY    62  57  83 S13       29.77R
SISSETON         N/A     63  57  81 SW10      29.79R
ABERDEEN       CLOUDY    63  59  87 S14       29.74F
MITCHELL       CLOUDY    62  60  93 SE16      29.78F
PIERRE         CLOUDY    65  60  84 SE13      29.66F
MOBRIDGE       CLOUDY    64  63  96 SW13      29.67R
RAPID CITY     MOCLDY    69  51  52 N14       29.78S
$$

  *****  SOME WEATHER IN NEARBY STATES *****

CITY           SKY/WX    TMP DP  RH WIND       PRES   REMARKS
GLASGOW MT     PTCLDY    57  49  74 W8        29.64R
GREAT FALLS MT MOCLDY    62  42  47 SW13      29.80R
CHEYENNE WY    CLEAR     57  40  52 W7        29.98F
SCOTTSBLUFF NE PTCLDY    64  48  56 N6        29.82F
OMAHA NE       CLOUDY    63  59  87 S15       29.95F
DES MOINES IA  PTCLDY    58  53  84 SE9       30.01F
DAVENPORT IA   CLEAR     52  50  93 SE7       30.10F FOG
CHICAGO IL     CLEAR     54  51  90 S7        30.13F
EAU CLAIRE WI  MOCLDY    53  51  93 SE8       30.02S
LA CROSSE WI   MOCLDY    57  52  83 SE9       30.04F
$$

  *****  SOME NATIONAL WEATHER *****

CITY           SKY/WX    TMP DP  RH WIND       PRES   REMARKS
LA GUARDIA NY  PTCLDY    57  50  77 NE15      30.23R
RALEIGH NC     MOCLDY    65  59  81 CALM      30.13R
ATLANTA GA     CLOUDY    70  66  87 E7        30.03R
NEW ORLEANS LA CLOUDY    75  68  78 SE3       29.91S
OKLAHOMA CITY  PTCLDY    67  64  90 CALM      29.95S
ALBUQUERQUE NM CLOUDY    66  58  75 N6        30.07R
SALT LAKE CITY TSTM      66  57  72 VRB5      29.97R
LOS ANGELES CA MOCLDY    66  63  88 SW3       29.88S
BOISE ID       CLEAR     61  47  59 W5        29.97R
SEATTLE WA     CLOUDY    63  57  82 S7        30.01S
$$

*** WEATHER ACROSS MANITOBA...SASKATCHEWAN AND ONTARIO ***
                ***ONTARIO***

CITY           SKY/WX    TMP DP  RH WIND       PRES   REMARKS
GERALDTON      CLOUDY    46  45  93 S12       29.90F
THUNDER BAY    CLOUDY    48  46  93 E3        29.93F
SIOUX LOOKOUT  CLOUDY    55  50  82 S17G25    29.62
TORONTO        PTCLDY    41  36  81 NE7       30.30R
BIG TROUT LK   RAIN      46  45  93 S14       29.48F FOG
PICKLE LAKE    NOT AVBL
DRYDEN         CLOUDY    57  52  82 S17G29    29.63F
KENORA         CLOUDY    59  54  82 S17G29    29.58F
$$
                *** MANITOBA***

CITY           SKY/WX    TMP DP  RH WIND       PRES   REMARKS
BRANDON        CLOUDY    57  55  94 SW7       29.47F
DAUPHIN        CLEAR     61  57  88 W7        29.45R
ISLAND LAKE    CLOUDY    52  52 100 CALM      29.43F
PILOT MOUND    NOT AVBL
THE PAS        NOT AVBL
THOMPSON       DRIZZLE   50  50 100 N9        29.45R
WINNIPEG       CLOUDY    66  61  82 S16       29.48F
LYNN LAKE      CLOUDY    48  43  81 N7        29.50S
CHURCHILL      CLOUDY    45  43  93 NW12      29.36S
GILLAM         CLOUDY    48  48 100 N8        29.40R
$$
                ***SASKATCHEWAN***

CITY           SKY/WX    TMP DP  RH WIND       PRES   REMARKS
ESTEVAN        CLOUDY    55  54  94 NW2       29.54R
KINDERSLEY     CLOUDY    54  52  94 NW5       29.61R
LLOYDMINSTER   CLOUDY    54  48  82 W8        29.59F
PRINCE ALBERT  CLOUDY    52  50  93 W2        29.55R
REGINA         CLOUDY    52  50  93 SW3       29.52R
YORKTON        MOCLDY    54  52  94 NW6       29.49S
N. BATTLEFORD  CLOUDY    50  50 100 W6        29.61R
LA RONGE       FOG       43  43 100 VRB2      29.55S VSB 1/4
SASKATOON      CLOUDY    50  50 100 W2        29.58R
SWIFT CURRENT  PTCLDY    55  46  71 W14       29.56R
$$
NOTE: THESE ARE AUTOMATED STATIONS WITH LIMITED QUALITY CONTROL
      "FAIR" INDICATES FEW OR NO CLOUDS BELOW 12,000 FEET WITH NO
      SIGNIFICANT WEATHER AND/OR OBSTRUCTIONS TO VISIBILITY.
      SKY/WX - SKY CONDITION AND SIGNIFICANT WEATHER.
      TMP - AIR TEMPERATURE.    DP   - DEWPOINT TEMPERATURE.
      RH  - RELATIVE HUMIDITY.  PRES - PRESSURE.
      HX  - HEAT INDEX.         WCI  - WIND CHILL INDEX.
$


USA.gov is the U.S. government's official web portal to all federal, state and local government web resources and services.